OpenBCM V1.13 (Linux)

Packet Radio Mailbox

DB0FHN

[JN59NK Nuernberg]

 Login: GUEST





  
UA9FBV > KEPS     12.11.04 08:27l 207 Lines 5449 Bytes #999 (0) @ AMSAT
BID : ORB04316.W
Read: GUEST
Subj: Orbital Elements  04316.WEATHER
Path: DB0FHN<DB0MRW<DB0HOT<OK0PBX<OK0PRG<OK0PCC<OK0PAD<OK0PPL<DB0RES<ER3KAZ<
      UA9FBV
Sent: 041112/0618Z @:UA9FBV.PRM.RUS.AS #:8767 [Perm] GATEWAY $:ORB04316.W
From: UA9FBV@UA9FBV.PRM.RUS.AS
To  : KEPS@AMSAT


HR AMSAT ORBITAL ELEMENTS FOR WEATHER SATELLITES
FROM WA5QGD FORT WORTH,TX November 11, 2004
SEND SUBSCRIBE/UNSUBSCRIBE TO majordomo@amsat.org ONLY
BID: ORB04316.W
TO ALL RADIO AMATEURS BT

Satellite: NOAA-10
Catalog number: 16969
Epoch time:      04316.37183318
Element set:     464
Inclination:       98.7613 deg
RA of node:       315.6630 deg
Eccentricity:    0.0013099
Arg of perigee:    50.7189 deg
Mean anomaly:     309.5149 deg
Mean motion:   14.27224360 rev/day
Decay rate:       3.35e-06 rev/day^2
Epoch rev:           94402
Checksum:              306

Satellite: NOAA-11
Catalog number: 19531
Epoch time:      04316.39573063
Element set:     322
Inclination:       98.8607 deg
RA of node:        39.2673 deg
Eccentricity:    0.0011557
Arg of perigee:   202.7847 deg
Mean anomaly:     157.2814 deg
Mean motion:   14.14737528 rev/day
Decay rate:        5.1e-07 rev/day^2
Epoch rev:           83213
Checksum:              299

Satellite: NOAA-12
Catalog number: 21263
Epoch time:      04316.44002285
Element set:     808
Inclination:       98.6833 deg
RA of node:       302.7210 deg
Eccentricity:    0.0012636
Arg of perigee:   346.6101 deg
Mean anomaly:      13.4758 deg
Mean motion:   14.25429080 rev/day
Decay rate:       4.37e-06 rev/day^2
Epoch rev:           70122
Checksum:              262

Satellite: MET-3/5
Catalog number: 21655
Epoch time:      04316.82724293
Element set:     667
Inclination:       82.5516 deg
RA of node:       312.2162 deg
Eccentricity:    0.0014450
Arg of perigee:    59.9028 deg
Mean anomaly:     300.3516 deg
Mean motion:   13.16995183 rev/day
Decay rate:        5.1e-07 rev/day^2
Epoch rev:           63670
Checksum:              291

Satellite: MET-2/21
Catalog number: 22782
Epoch time:      04316.81358412
Element set:      53
Inclination:       82.5487 deg
RA of node:        73.4182 deg
Eccentricity:    0.0022294
Arg of perigee:    17.1246 deg
Mean anomaly:     343.0691 deg
Mean motion:   13.83573783 rev/day
Decay rate:        3.2e-07 rev/day^2
Epoch rev:           56551
Checksum:              291

Satellite: OKEAN-4
Catalog number: 23317
Epoch time:      04316.68357601
Element set:     469
Inclination:       82.5372 deg
RA of node:       100.1611 deg
Eccentricity:    0.0023632
Arg of perigee:   130.4051 deg
Mean anomaly:     229.9209 deg
Mean motion:   14.81958376 rev/day
Decay rate:      1.897e-05 rev/day^2
Epoch rev:           54369
Checksum:              302

Satellite: NOAA-14
Catalog number: 23455
Epoch time:      04316.34653416
Element set:     343
Inclination:       99.1228 deg
RA of node:       354.7831 deg
Eccentricity:    0.0008617
Arg of perigee:   251.0009 deg
Mean anomaly:     109.0214 deg
Mean motion:   14.13506371 rev/day
Decay rate:       1.03e-06 rev/day^2
Epoch rev:           50872
Checksum:              265

Satellite: SICH-1
Catalog number: 23657
Epoch time:      04316.15336407
Element set:     272
Inclination:       82.5287 deg
RA of node:       241.4570 deg
Eccentricity:    0.0025563
Arg of perigee:   116.7095 deg
Mean anomaly:     243.6746 deg
Mean motion:   14.80984807 rev/day
Decay rate:      1.902e-05 rev/day^2
Epoch rev:           49568
Checksum:              317

Satellite: NOAA-15
Catalog number: 25338
Epoch time:      04316.25438965
Element set:     793
Inclination:       98.5198 deg
RA of node:       325.2049 deg
Eccentricity:    0.0009558
Arg of perigee:   276.2834 deg
Mean anomaly:      83.7274 deg
Mean motion:   14.24464846 rev/day
Decay rate:       1.31e-06 rev/day^2
Epoch rev:           33772
Checksum:              337

Satellite: RESURS
Catalog number: 25394
Epoch time:      04316.89123043
Element set:     945
Inclination:       98.5675 deg
RA of node:        25.9955 deg
Eccentricity:    0.0002403
Arg of perigee:    77.6759 deg
Mean anomaly:     282.4687 deg
Mean motion:   14.24033708 rev/day
Decay rate:       1.51e-06 rev/day^2
Epoch rev:           32952
Checksum:              316

Satellite: FENGYUN1
Catalog number: 25730
Epoch time:      04316.62999195
Element set:     277
Inclination:       98.6051 deg
RA of node:       321.1641 deg
Eccentricity:    0.0014512
Arg of perigee:     4.4048 deg
Mean anomaly:     355.7249 deg
Mean motion:   14.11783244 rev/day
Decay rate:       -2.0e-07 rev/day^2
Epoch rev:           28381
Checksum:              283

Satellite: OKEAN-0
Catalog number: 25860
Epoch time:      04316.21012660
Element set:     276
Inclination:       97.7828 deg
RA of node:       345.4323 deg
Eccentricity:    0.0001570
Arg of perigee:   139.3699 deg
Mean anomaly:     220.7716 deg
Mean motion:   14.73149899 rev/day
Decay rate:      1.141e-05 rev/day^2
Epoch rev:           28591
Checksum:              307

Satellite: NOAA-16
Catalog number: 26536
Epoch time:      04316.56707934
Element set:      95
Inclination:       98.9820 deg
RA of node:       268.1246 deg
Eccentricity:    0.0010078
Arg of perigee:   325.1104 deg
Mean anomaly:      34.9725 deg
Mean motion:   14.12172484 rev/day
Decay rate:       -3.9e-07 rev/day^2
Epoch rev:           21334
Checksum:              296

Satellite: NOAA-17
Catalog number: 27453
Epoch time:      04316.55378173
Element set:     117
Inclination:       98.6868 deg
RA of node:        27.1140 deg
Eccentricity:    0.0011146
Arg of perigee:   330.6264 deg
Mean anomaly:      29.4289 deg
Mean motion:   14.23593632 rev/day
Decay rate:       3.65e-06 rev/day^2
Epoch rev:           12387
Checksum:              305



Read previous mail | Read next mail


 23.06.2026 17:13:03lGo back Go up